EW8073 Weather Reports


time (UTC)temp
C
wind
direction
speed
KPH
gust
KPH
rain 1hr
cm
rain 24hr
cm
rain mn
cm
humidity
%
barometer
mb
20260507073134 1 238 0.0 3.2 0.00 0.00 0.00 84 1015.9
20260507072631 1 238 0.0 4.8 0.00 0.00 0.00 84 1015.8
20260507072130 1 238 1.6 6.4 0.00 0.00 0.00 84 1015.9
20260507071631 1 236 1.6 6.4 0.00 0.00 0.00 84 1015.8
20260507070129 1 239 1.6 6.4 0.00 0.00 0.00 85 1016.0
20260507065638 1 229 1.6 4.8 0.00 0.00 0.00 85 1016.0
20260507065129 1 228 0.0 4.8 0.00 0.00 0.00 85 1016.0
20260507064631 1 228 0.0 3.2 0.00 0.00 0.00 84 1016.0
20260507064125 1 228 0.0 4.8 0.00 0.00 0.00 85 1016.0
20260507063626 1 228 0.0 4.8 0.00 0.00 0.00 84 1016.0
20260507060628 1 227 0.0 6.4 0.00 0.00 0.00 84 1016.2
20260507055620 1 225 0.0 0.0 0.00 0.00 0.00 83 1016.2
20260507055114 1 225 0.0 0.0 0.00 0.00 0.00 83 1016.2
20260507053556 1 225 0.0 0.0 0.00 0.00 0.00 82 1016.4
20260507053049 0 225 0.0 0.0 0.00 0.00 0.00 82 1016.5
20260507052545 0 225 0.0 0.0 0.00 0.00 0.00 81 1016.6
20260507052038 0 225 0.0 0.0 0.00 0.00 0.00 81 1016.6
20260507051532 0 225 0.0 0.0 0.00 0.00 0.00 80 1016.7
20260507051026 0 225 0.0 0.0 0.00 0.00 0.00 80 1016.7
20260507050519 0 225 0.0 0.0 0.00 0.00 0.00 80 1016.7
20260507050014 0 225 0.0 0.0 0.00 0.00 0.00 80 1016.8
20260507045509 0 225 0.0 0.0 0.00 0.00 0.00 80 1016.8
20260507045002 0 225 0.0 0.0 0.00 0.00 0.00 79 1016.7
20260507044455 0 225 0.0 0.0 0.00 0.00 0.00 79 1016.9
20260507043950 1 225 0.0 0.0 0.00 0.00 0.00 79 1016.9
20260507043444 1 225 0.0 0.0 0.00 0.00 0.00 78 1016.9
20260507042938 1 225 0.0 0.0 0.00 0.00 0.00 78 1016.8
20260507042433 1 225 0.0 0.0 0.00 0.00 0.00 77 1016.8
20260507041420 1 225 0.0 0.0 0.00 0.00 0.00 76 1016.8
20260507040914 1 225 0.0 0.0 0.00 0.00 0.00 76 1016.8
20260507040409 1 225 0.0 0.0 0.00 0.00 0.00 76 1016.9
20260507035907 1 225 0.0 0.0 0.00 0.00 0.00 76 1017.2
20260507035408 1 225 0.0 0.0 0.00 0.00 0.00 76 1017.1
20260507034406 1 225 0.0 0.0 0.00 0.00 0.00 76 1017.1
20260507033903 1 225 0.0 0.0 0.00 0.00 0.00 76 1017.1
20260507033404 2 225 0.0 0.0 0.00 0.00 0.00 76 1016.9
20260507031901 2 225 0.0 0.0 0.00 0.00 0.00 76 1016.9
20260507030903 2 225 0.0 0.0 0.00 0.00 0.00 76 1016.9
20260507030400 2 225 0.0 0.0 0.00 0.00 0.00 75 1016.8
20260507025401 2 225 0.0 0.0 0.00 0.00 0.00 75 1016.8
20260507024901 2 225 0.0 0.0 0.00 0.00 0.00 75 1016.8
20260507024401 2 225 0.0 0.0 0.00 0.00 0.00 74 1016.7
20260507023858 2 225 0.0 0.0 0.00 0.00 0.00 74 1016.7
20260507022900 3 225 0.0 0.0 0.00 0.00 0.00 74 1016.6
20260507021900 3 225 0.0 0.0 0.00 0.00 0.00 73 1016.6
20260507021359 3 225 0.0 0.0 0.00 0.00 0.00 72 1016.6
20260507020859 3 225 0.0 0.0 0.00 0.00 0.00 72 1016.6
20260507020400 3 225 0.0 0.0 0.00 0.00 0.00 72 1016.6
20260507015859 3 225 0.0 0.0 0.00 0.00 0.00 71 1016.5
20260507015358 3 225 0.0 0.0 0.00 0.00 0.00 71 1016.5
20260507014859 3 225 0.0 0.0 0.00 0.00 0.00 71 1016.5
20260507014358 3 225 0.0 0.0 0.00 0.00 0.00 70 1016.5
20260507013858 3 225 0.0 0.0 0.00 0.00 0.00 70 1016.5
20260507012858 4 225 0.0 0.0 0.00 0.00 0.00 69 1016.6
20260507012359 4 225 0.0 0.0 0.00 0.00 0.00 69 1016.6
20260507011858 4 225 0.0 0.0 0.00 0.00 0.00 69 1016.6
20260507011400 4 225 0.0 0.0 0.00 0.00 0.00 68 1016.7
20260507010401 4 225 0.0 0.0 0.00 0.00 0.00 68 1016.7
20260507005358 5 225 0.0 0.0 0.00 0.00 0.00 66 1016.7
20260507004859 5 225 0.0 0.0 0.00 0.00 0.00 66 1016.7
20260507004358 5 225 0.0 0.0 0.00 0.00 0.00 67 1016.8
20260507003356 5 225 0.0 0.0 0.00 0.00 0.00 66 1016.9
20260507002856 6 225 0.0 0.0 0.00 0.00 0.00 64 1017.1
20260507002356 6 225 0.0 0.0 0.00 0.00 0.00 65 1017.2
20260507001856 6 225 0.0 0.0 0.00 0.00 0.00 65 1017.3
20260507001354 6 0 0.0 0.0 0.00 0.00 0.00 66 1017.2
20260507000852 6 0 0.0 0.0 0.00 0.00 0.00 65 1017.3
20260507000353 6 225 0.0 1.6 0.00 0.00 0.00 65 1017.4
20260506235847 6 225 0.0 3.2 0.00 0.00 0.00 65 1017.4
20260506235341 6 225 0.0 4.8 0.00 0.00 0.00 66 1017.5
20260506234835 6 225 1.6 6.4 0.00 0.00 0.00 65 1017.4
20260506234329 6 225 0.0 6.4 0.00 0.00 0.00 65 1017.4
20260506233824 6 226 0.0 1.6 0.00 0.00 0.00 66 1017.4
20260506233317 6 226 0.0 0.0 0.00 0.00 0.00 67 1017.4
20260506232306 6 225 1.6 6.4 0.00 0.00 0.00 68 1017.4
20260506231256 5 225 0.0 6.4 0.00 0.00 0.00 67 1017.4
20260506230747 6 225 0.0 6.4 0.00 0.00 0.00 67 1017.5
20260506225735 5 223 0.0 3.2 0.00 0.00 0.00 71 1017.6
20260506225229 5 223 0.0 3.2 0.00 0.00 0.00 68 1017.6
20260506224723 5 221 0.0 0.0 0.00 0.00 0.00 70 1017.6
20260506224218 5 222 0.0 3.2 0.00 0.00 0.00 71 1017.8
20260506223711 5 222 0.0 4.8 0.00 0.00 0.00 71 1017.8
20260506223205 5 221 0.0 4.8 0.00 0.00 0.00 70 1017.8
20260506222659 5 221 0.0 0.0 0.00 0.00 0.00 69 1018.0
20260506222153 5 221 0.0 0.0 0.00 0.00 0.00 68 1018.0
20260506221647 6 221 0.0 3.2 0.00 0.00 0.00 71 1018.1
20260506221141 5 221 0.0 4.8 0.00 0.00 0.00 71 1018.1
20260506220129 4 221 0.0 0.0 0.00 0.03 0.00 73 1018.2
20260506215625 4 221 0.0 6.4 0.00 0.03 0.00 72 1018.2
20260506214614 3 219 0.0 6.4 0.00 0.03 0.00 73 1018.5
20260506214105 4 217 0.0 0.0 0.00 0.03 0.00 74 1018.5
20260506213600 3 216 0.0 0.0 0.00 0.03 0.00 75 1018.5
20260506213053 3 217 0.0 0.0 0.00 0.03 0.00 76 1018.5
20260506212547 4 216 0.0 0.0 0.00 0.03 0.00 78 1018.5
20260506212041 4 216 0.0 0.0 0.00 0.03 0.00 79 1018.5
20260506211030 4 215 0.0 4.8 0.00 0.03 0.00 79 1018.6
20260506210524 4 216 0.0 4.8 0.00 0.03 0.00 80 1018.7
20260506210019 4 215 0.0 3.2 0.00 0.03 0.00 81 1018.7
20260506205511 4 215 0.0 3.2 0.00 0.03 0.00 81 1018.9
20260506205005 4 215 0.0 0.0 0.00 0.03 0.00 82 1018.9
20260506204459 4 215 0.0 1.6 0.00 0.03 0.00 82 1018.9
20260506203954 4 215 0.0 1.6 0.00 0.03 0.00 82 1019.0
20260506203447 4 215 0.0 0.0 0.00 0.03 0.00 83 1019.0
20260506202941 4 214 0.0 0.0 0.00 0.03 0.00 83 1019.2
20260506202435 4 214 0.0 1.6 0.00 0.03 0.00 83 1019.2
20260506201929 4 214 0.0 1.6 0.00 0.03 0.00 83 1019.2
20260506201424 4 215 0.0 1.6 0.00 0.03 0.00 83 1019.2
20260506200917 4 215 0.0 1.6 0.00 0.03 0.00 82 1019.2
20260506195906 4 215 0.0 1.6 0.00 0.03 0.00 82 1019.2
20260506195400 4 215 0.0 1.6 0.00 0.03 0.00 82 1019.2
20260506193841 4 215 0.0 0.0 0.00 0.03 0.00 84 1019.4
20260506193336 4 215 0.0 0.0 0.00 0.03 0.00 84 1019.5
20260506192829 4 215 0.0 0.0 0.00 0.03 0.00 84 1019.5
20260506192323 4 214 0.0 0.0 0.00 0.03 0.00 85 1019.5
20260506191817 4 214 0.0 4.8 0.00 0.03 0.00 86 1019.6
20260506191311 4 214 0.0 4.8 0.00 0.03 0.00 86 1019.6
20260506190805 4 213 1.6 4.8 0.00 0.03 0.00 87 1019.6
20260506190259 4 95 0.0 3.2 0.00 0.03 0.00 87 1019.7
20260506185248 3 96 0.0 3.2 0.00 0.03 0.00 88 1019.9
20260506184741 3 95 0.0 1.6 0.00 0.03 0.00 89 1019.9
20260506184235 3 95 0.0 1.6 0.00 0.03 0.00 89 1020.0
20260506183728 3 96 0.0 1.6 0.00 0.03 0.00 89 1020.0
20260506183224 2 98 0.0 1.6 0.00 0.03 0.00 89 1020.0
20260506182718 2 0 0.0 1.6 0.00 0.03 0.00 89 1020.1
20260506181707 2 0 0.0 1.6 0.00 0.03 0.00 90 1020.1
20260506181200 2 98 0.0 0.0 0.00 0.03 0.00 90 1020.1
20260506180654 2 98 0.0 1.6 0.00 0.03 0.00 91 1020.0
20260506180148 2 0 0.0 3.2 0.00 0.03 0.00 91 1020.0
20260506175642 2 0 0.0 3.2 0.00 0.03 0.00 91 1020.0
20260506175136 2 95 0.0 1.6 0.00 0.03 0.00 91 1020.0
20260506174630 1 95 0.0 3.2 0.00 0.03 0.00 91 1019.9
20260506174126 1 95 0.0 3.2 0.00 0.03 0.00 91 1020.0
20260506173626 1 95 0.0 3.2 0.00 0.03 0.00 91 1020.0
20260506173123 1 95 1.6 4.8 0.00 0.03 0.00 91 1020.0
20260506172624 1 95 1.6 4.8 0.00 0.03 0.00 91 1020.0
20260506172123 1 96 1.6 9.7 0.00 0.03 0.00 91 1019.9
20260506171623 0 96 1.6 9.7 0.00 0.05 0.00 91 1019.9
20260506171119 0 78 1.6 9.7 0.00 0.05 0.00 91 1019.9
20260506170619 0 81 1.6 8.0 0.00 0.05 0.00 91 1019.7
20260506170119 0 86 1.6 14.5 0.00 0.05 0.00 91 1019.7
20260506165620 0 78 3.2 14.5 0.00 0.05 0.00 91 1019.6
20260506165119 0 256 1.6 11.3 0.00 0.05 0.00 91 1019.6
20260506164620 0 92 1.6 12.9 0.00 0.05 0.00 91 1019.5
20260506164117 0 87 1.6 9.7 0.00 0.05 0.00 92 1019.4
20260506163615 0 126 3.2 12.9 0.00 0.05 0.00 91 1019.2
20260506163115 0 67 3.2 12.9 0.00 0.05 0.00 91 1018.9
20260506162616 0 94 3.2 12.9 0.00 0.05 0.00 91 1019.2
20260506162115 0 91 1.6 12.9 0.00 0.05 0.00 91 1019.0
20260506161615 1 53 0.0 6.4 0.00 0.05 0.00 91 1018.9
20260506161116 1 333 0.0 0.0 0.00 0.05 0.00 92 1018.8
20260506160616 1 332 0.0 1.6 0.00 0.05 0.00 92 1018.6
20260506160117 1 336 0.0 3.2 0.00 0.05 0.00 92 1018.6
20260506155111 1 335 0.0 3.2 0.00 0.05 0.00 92 1018.8
20260506154612 0 335 0.0 4.8 0.00 0.05 0.00 91 1018.8
20260506154112 0 335 0.0 6.4 0.00 0.05 0.00 91 1018.7
20260506153612 0 334 0.0 6.4 0.00 0.05 0.00 92 1018.7
20260506152611 0 334 0.0 4.8 0.00 0.05 0.00 92 1018.6
20260506152111 0 334 0.0 3.2 0.00 0.05 0.00 92 1018.5
20260506151612 0 333 0.0 3.2 0.00 0.05 0.00 92 1018.5
20260506150600 0 333 0.0 8.0 0.00 0.05 0.00 92 1018.2
20260506150054 0 334 0.0 8.0 0.00 0.05 0.00 92 1018.2
20260506145548 0 334 0.0 4.8 0.00 0.05 0.00 92 1018.2
20260506145041 0 333 0.0 4.8 0.00 0.05 0.00 92 1018.2
20260506144532 0 333 0.0 4.8 0.00 0.05 0.00 92 1018.2
20260506144026 0 334 0.0 3.2 0.00 0.05 0.00 92 1018.2
20260506143520 0 334 0.0 3.2 0.00 0.05 0.00 92 1018.1
20260506143014 0 334 0.0 3.2 0.00 0.05 0.00 92 1018.0
20260506142509 0 334 0.0 3.2 0.00 0.05 0.00 92 1018.0
20260506142003 0 334 0.0 6.4 0.00 0.05 0.00 92 1018.0
20260506141458 0 334 0.0 6.4 0.00 0.05 0.00 92 1018.0
20260506140952 0 334 0.0 3.2 0.00 0.05 0.00 92 1018.0
20260506135938 0 334 0.0 0.0 0.00 0.05 0.00 92 1018.0
20260506135433 0 334 0.0 0.0 0.00 0.05 0.00 92 1018.0
20260506134933 0 334 0.0 0.0 0.00 0.05 0.00 92 1017.9
20260506134433 0 334 0.0 0.0 0.00 0.05 0.00 92 1017.9
20260506133931 0 334 0.0 0.0 0.00 0.05 0.00 92 1017.8
20260506133429 0 334 0.0 0.0 0.00 0.05 0.00 91 1017.8
20260506132927 0 333 0.0 0.0 0.00 0.05 0.00 91 1017.6
20260506132427 0 334 0.0 0.0 0.00 0.05 0.00 91 1017.5
20260506131927 0 333 0.0 0.0 0.00 0.05 0.00 91 1017.4
20260506130924 0 333 0.0 0.0 0.00 0.05 0.00 92 1017.2
20260506130421 0 333 0.0 0.0 0.00 0.05 0.00 92 1017.1
20260506125919 0 333 0.0 0.0 0.00 0.05 0.00 92 1016.9
20260506125419 0 333 0.0 0.0 0.00 0.05 0.00 91 1016.9
20260506124919 0 333 0.0 0.0 0.00 0.05 0.00 92 1016.7
20260506124420 0 333 0.0 0.0 0.00 0.05 0.00 91 1016.7
20260506123919 0 333 0.0 0.0 0.00 0.05 0.00 92 1016.7
20260506123417 0 333 0.0 0.0 0.00 0.05 0.00 92 1016.7
20260506122915 0 333 0.0 0.0 0.00 0.05 0.00 91 1016.7
20260506122413 0 333 0.0 0.0 0.00 0.05 0.00 92 1016.9
20260506121913 0 333 0.0 0.0 0.00 0.05 0.00 91 1016.8
20260506121408 0 333 0.0 0.0 0.00 0.05 0.00 92 1016.6
20260506120902 0 333 0.0 0.0 0.00 0.05 0.00 91 1016.6
20260506120355 0 333 0.0 0.0 0.00 0.05 0.00 91 1016.6
20260506115849 0 333 0.0 0.0 0.00 0.05 0.00 91 1016.6
20260506115343 0 333 0.0 0.0 0.00 0.05 0.00 91 1016.5
20260506114836 0 333 0.0 0.0 0.00 0.05 0.00 91 1016.5
20260506114331 0 333 0.0 0.0 0.00 0.05 0.00 91 1016.5
20260506113826 0 333 0.0 0.0 0.00 0.05 0.00 91 1016.5
20260506112813 0 333 0.0 0.0 0.00 0.05 0.00 91 1016.4
20260506112307 0 333 0.0 0.0 0.00 0.05 0.00 91 1016.2
20260506111800 0 333 0.0 0.0 0.00 0.05 0.00 91 1016.1
20260506111255 0 333 0.0 0.0 0.00 0.05 0.00 91 1016.2
20260506110749 0 333 0.0 0.0 0.00 0.05 0.00 91 1016.1
20260506110242 0 333 0.0 0.0 0.00 0.05 0.00 91 1016.0
20260506105738 0 333 0.0 0.0 0.00 0.05 0.00 91 1015.9
20260506105231 0 333 0.0 0.0 0.00 0.05 0.00 91 1015.9
20260506104724 0 333 0.0 0.0 0.00 0.05 0.00 91 1015.9
20260506104218 0 333 0.0 0.0 0.00 0.05 0.00 91 1015.9
20260506103712 0 333 0.0 0.0 0.00 0.05 0.00 91 1015.9
20260506103207 0 333 0.0 0.0 0.00 0.05 0.00 91 1015.9
20260506102155 0 333 0.0 0.0 0.00 0.05 0.00 91 1016.1
20260506101143 0 333 0.0 0.0 0.00 0.05 0.00 91 1016.1
20260506100637 0 333 0.0 0.0 0.00 0.05 0.00 91 1016.1
20260506095626 0 333 0.0 0.0 0.00 0.05 0.00 91 1016.2
20260506095119 0 333 0.0 0.0 0.00 0.05 0.00 91 1016.0
20260506094614 0 333 0.0 0.0 0.00 0.05 0.00 91 1016.0
20260506093613 0 333 0.0 0.0 0.00 0.05 0.00 91 1015.9
20260506093056 0 333 0.0 0.0 0.00 0.05 0.00 91 1015.9
20260506092549 0 333 0.0 0.0 0.00 0.05 0.00 91 1015.9
20260506092042 0 333 0.0 0.0 0.00 0.05 0.00 91 1015.9
20260506090525 0 333 0.0 0.0 0.00 0.05 0.00 91 1015.9
20260506090018 0 333 0.0 0.0 0.00 0.05 0.00 91 1015.8
20260506085513 0 333 0.0 0.0 0.00 0.05 0.00 91 1015.9
20260506085008 0 333 0.0 0.0 0.00 0.05 0.00 91 1015.8
20260506083955 0 333 0.0 0.0 0.00 0.05 0.00 91 1015.7
20260506083455 0 333 0.0 0.0 0.00 0.05 0.00 91 1015.7
20260506082952 0 333 0.0 0.0 0.00 0.05 0.00 91 1015.7
20260506082453 0 333 0.0 0.0 0.00 0.05 0.00 91 1015.8
20260506081953 0 333 0.0 0.0 0.00 0.05 0.00 91 1016.0
20260506081451 0 333 0.0 0.0 0.00 0.05 0.00 91 1016.2